Location: Ortegal, La Coruña, España
(43.6156°N, 7.8471°W)
Time: 20:40:59
(UTC+02:00)

ISS - Pass Details

Date: 08 February 2019
Orbit: 411 x 421 km, 51.6° (Epoch: 17 October)

Event Time Altitude Azimuth Distance (km) Brightness Sun altitude
Rises 19:17:09 0° 302° (WNW) 2,377 0.8 -5.2°
Reaches altitude 10° 19:19:16 10° 304° (NW) 1,511 -0.3 -5.6°
Maximum altitude 19:22:40 76° 30° (NNE) 439 -3.8 -6.2°
Drops below altitude 10° 19:26:03 10° 118° (ESE) 1,506 -1.4 -6.8°
Enters shadow 19:27:39 - 119° (ESE) 2,162 -0.6 -7.1°
